Location: Unspecified
(0.0000°N, 0.0000°E)
Time: 21:36:38
(UTC+00:00)

Vanguard 1 - Pass Details

Date: 25 June 2025
Orbit: 649 x 3822 km, 34.2° (Epoch: 12 July)

Event Time Altitude Azimuth Distance (km) Brightness Sun altitude
Exits shadow 02:58:29 13° 94° (E) 2,122 12.2 -41.4°
Drops below altitude 10° 02:59:23 10° 87° (E) 2,424 12.6 -41.2°
Sets 03:02:49 0° 74° (ENE) 3,700 13.8 -40.4°
